Location: Austin
(30.3000°N, 97.7500°W)
Time: 05:53:57
(UTC-06:00)

NOSS 2-2 (C) - Pass Details

Date: 03 March 2026
Orbit: 379 x 1691 km, 63.3° (Epoch: 5 March)

Event Time Altitude Azimuth Distance (km) Brightness Sun altitude
Rises 18:56:52 0° 200° (SSW) 3,085 7.5 -6.3°
Reaches altitude 10° 18:59:33 10° 197° (SSW) 1,970 6.4 -6.9°
Maximum altitude 19:03:44 57° 119° (ESE) 591 3.2 -7.8°
Drops below altitude 10° 19:07:00 10° 39° (NE) 1,533 5.2 -8.5°
Enters shadow 19:08:32 - 35° (NE) 2,187 6.0 -8.8°
